Homer, AK

8:53 PM AKDT on July 24, 2017 (GMT -0800)
Homer

Weather History for PAHO - November, 2010

Change the Weather History Date:

Sunday, November 7, 2010

  Actual Average Record
Temperature  
Mean Temperature 32 °F -  
Max Temperature 35 °F 37 °F 51 °F (1979)
Min Temperature 30 °F 25 °F 4 °F (1956)
Degree Days  
Heating Degree Days 33    
Moisture  
Dew Point 30 °F    
Average Humidity 95    
Maximum Humidity 100    
Minimum Humidity 75    
Precipitation  
Precipitation 0.21 in - - ()
Sea Level Pressure  
Sea Level Pressure 29.45 in    
Wind  
Wind Speed 5 mph (NE)    
Max Wind Speed 10 mph    
Max Gust Speed -    
Visibility 5 miles    
Events Fog , Snow    
Averages and records for this station are not official NWS values.
T = Trace of Precipitation, MM = Missing Value Source: NWS Daily Summary

Daily Weather History Graph

Daily Weather History Graph

Search for Another Location

Airport or City:

Trip Planner

Search our weather history database for the weather conditions in past years. The results will help you decide how hot, cold, wet, or windy it might be!

Date:

Astronomy

Nov. 07, 2010 Rise Set
Actual Time 8:42 AM AKST 4:55 PM AKST
Civil Twilight 7:56 AM AKST 5:42 PM AKST
Nautical Twilight 7:06 AM AKST 6:31 PM AKST
Astronomical Twilight 6:18 AM AKST 7:19 PM AKST
Moon 11:32 AM AKST (11/7) 5:09 PM AKST (11/7)
Length of Visible Light 9h 45m
Length of Day
8h 13m
Waxing Crescent, 4% of the Moon is Illuminated
Nov 7
Waxing Crescent
Nov 13
First Quarter
Nov 21
Full
Nov 28
Last Quarter
Dec 5
New

Hourly Weather History & Observations

Time (AKST) Temp. Windchill Dew Point Humidity Pressure Visibility Wind Dir Wind Speed Gust Speed Precip Events Conditions
12:10 AM 33.8 °F 29.6 °F 32.0 °F 93% 29.24 in 5.0 mi WSW 4.6 mph - 0.00 in Snow Light Snow
12:22 AM 33.8 °F 28.6 °F 32.0 °F 93% 29.25 in 6.0 mi SW 5.8 mph - 0.00 in Snow Light Snow
12:53 AM 33.1 °F 27.7 °F 32.0 °F 96% 29.26 in 9.0 mi SW 5.8 mph - 0.00 in   Overcast
1:05 AM 33.8 °F - 32.0 °F 93% 29.26 in 6.0 mi Calm Calm - 0.00 in Snow Light Snow
1:32 AM 33.8 °F 27.7 °F 32.0 °F 93% 29.26 in 7.0 mi NW 6.9 mph - 0.00 in Snow Light Snow
1:53 AM 33.1 °F 25.5 °F 30.9 °F 92% 29.27 in 10.0 mi NW 9.2 mph - 0.00 in   Overcast
1:53 AM 33.1 °F 28.7 °F 30.9 °F 92% 29.30 in 10.0 mi Variable 4.6 mph - 0.00 in Snow Light Snow
3:38 AM 33.8 °F 27.7 °F 30.2 °F 87% 29.33 in 10.0 mi SW 6.9 mph - N/A   Overcast
3:53 AM 33.1 °F 28.7 °F 30.9 °F 92% 29.34 in 10.0 mi Variable 4.6 mph - N/A   Overcast
4:53 AM 33.1 °F 28.7 °F 30.9 °F 92% 29.35 in 10.0 mi Variable 4.6 mph - 0.00 in Snow Light Snow
5:42 AM 33.8 °F 25.8 °F 30.2 °F 87% 29.37 in 5.0 mi NNW 10.4 mph - 0.00 in Snow Light Snow
5:53 AM 33.1 °F 26.1 °F 30.9 °F 92% 29.37 in 2.0 mi NNW 8.1 mph - 0.01 in Snow Light Snow
6:53 AM 33.1 °F 30.0 °F 30.0 °F 89% 29.40 in 2.0 mi Variable 3.5 mph - 0.00 in   Overcast
7:53 AM 33.1 °F 27.7 °F 28.9 °F 85% 29.42 in 9.0 mi Variable 5.8 mph - N/A   Overcast
8:53 AM 33.1 °F - 28.0 °F 82% 29.44 in 10.0 mi Calm Calm - N/A   Overcast
9:53 AM 33.1 °F 30.0 °F 28.0 °F 82% 29.45 in 10.0 mi Variable 3.5 mph - N/A   Mostly Cloudy
10:53 AM 34.0 °F 31.0 °F 27.0 °F 75% 29.48 in 10.0 mi SW 3.5 mph - N/A   Mostly Cloudy
11:53 AM 33.1 °F 28.7 °F 27.0 °F 78% 29.50 in 5.0 mi NNW 4.6 mph - 0.00 in Snow Light Snow
12:02 PM 33.8 °F 29.6 °F 28.4 °F 81% 29.50 in 1.0 mi NNW 4.6 mph - 0.00 in Snow Light Snow
12:36 PM 30.2 °F - 30.2 °F 100% 29.51 in 0.5 mi Calm Calm - 0.02 in Fog , Snow Snow
12:53 PM 30.9 °F 27.5 °F 30.0 °F 96% 29.52 in 1.0 mi East 3.5 mph - 0.03 in Snow Light Snow
1:07 PM 30.2 °F 24.3 °F 30.2 °F 100% 29.51 in 2.0 mi East 5.8 mph - 0.00 in Snow Light Snow
1:19 PM 30.2 °F 24.3 °F 30.2 °F 100% 29.51 in 0.5 mi East 5.8 mph - 0.01 in Fog , Snow Snow
1:53 PM 30.9 °F 27.5 °F 30.9 °F 100% 29.52 in 0.5 mi ESE 3.5 mph - 0.03 in Fog , Snow Snow
2:00 PM 30.2 °F 26.7 °F 30.2 °F 100% 29.52 in 0.5 mi ENE 3.5 mph - 0.01 in Fog , Snow Snow
2:53 PM 30.9 °F 26.2 °F 30.9 °F 100% 29.52 in 0.2 mi East 4.6 mph - 0.07 in Fog , Snow Snow
3:12 PM 30.2 °F 26.7 °F 30.2 °F 100% 29.52 in 0.5 mi NE 3.5 mph - 0.03 in Fog , Snow Snow
3:21 PM 30.2 °F 26.7 °F 30.2 °F 100% 29.52 in 1.5 mi ENE 3.5 mph - 0.03 in Snow Light Snow
3:38 PM 30.2 °F 25.4 °F 30.2 °F 100% 29.52 in 0.5 mi ENE 4.6 mph - 0.03 in Fog , Snow Light Snow
3:53 PM 30.0 °F 24.1 °F 30.0 °F 100% 29.53 in 0.5 mi ENE 5.8 mph - 0.04 in Fog , Snow Light Snow
4:00 PM 30.2 °F 25.4 °F 30.2 °F 100% 29.52 in 1.0 mi East 4.6 mph - 0.00 in Snow Light Snow
4:38 PM 30.2 °F - 30.2 °F 100% 29.52 in 0.5 mi Calm Calm - 0.01 in Fog , Snow Light Snow
4:53 PM 30.9 °F - 30.0 °F 96% 29.53 in 0.5 mi Calm Calm - 0.02 in Fog , Snow Snow
5:08 PM 30.2 °F - 30.2 °F 100% 29.53 in 1.0 mi Calm Calm - 0.00 in Snow Light Snow
5:22 PM 30.2 °F 26.7 °F 30.2 °F 100% 29.52 in 2.0 mi East 3.5 mph - 0.00 in Snow Light Snow
5:29 PM 30.2 °F 26.7 °F 30.2 °F 100% 29.52 in 1.5 mi ENE 3.5 mph - 0.01 in Snow Light Snow
5:34 PM 30.2 °F 26.7 °F 30.2 °F 100% 29.52 in 4.0 mi NNE 3.5 mph - 0.01 in Snow Light Snow
5:53 PM 30.0 °F 26.5 °F 30.0 °F 100% 29.53 in 4.0 mi NE 3.5 mph - 0.01 in   Overcast
6:00 PM 30.2 °F 26.7 °F 30.2 °F 100% 29.52 in 10.0 mi NE 3.5 mph - N/A   Overcast
6:53 PM 30.0 °F 25.2 °F 30.0 °F 100% 29.52 in 4.0 mi NE 4.6 mph - 0.00 in Snow Light Snow
7:41 PM 30.2 °F 25.4 °F 30.2 °F 100% 29.51 in 10.0 mi NE 4.6 mph - 0.00 in   Overcast
7:53 PM 30.0 °F 26.5 °F 30.0 °F 100% 29.52 in 10.0 mi NE 3.5 mph - 0.00 in   Overcast
8:53 PM 30.0 °F 26.5 °F 28.9 °F 96% 29.52 in 10.0 mi NNE 3.5 mph - N/A   Overcast
9:53 PM 30.0 °F 26.5 °F 28.9 °F 96% 29.52 in 10.0 mi NNE 3.5 mph - N/A   Overcast
10:53 PM 30.0 °F 26.5 °F 28.9 °F 96% 29.52 in 10.0 mi NNE 3.5 mph - N/A   Overcast